Back to catalog

YAOGAN-39 01C

AliveMilitaryVLEO
NORAD 57731·PAYLOAD·🇨🇳 China

Launched Aug 31, 2023 from Xichang Satellite Launch Center

Loading…

Next Passes (next 24 hours)

TLE

FreshSource: Space-Track

Epoch: Sep 14, 2026, 13:58 UTC

1 57731U 23130E   26257.58239631  .00004487  00000-0  22397-3 0  9990
2 57731  34.9937 315.3083 0009702  38.0663 322.0734 15.16889984169047

Track YAOGAN-39 01C in real time with AllMySat

Download on the App Store